TimeCDT,TemperatureF,Dew PointF,Humidity,Sea Level PressureIn,VisibilityMPH,Wind Direction,Wind SpeedMPH,Gust SpeedMPH,PrecipitationIn,Events,Conditions,WindDirDegrees,DateUTC
12:15 AM,62.6,57.2,82,29.85,10.0,ESE,10.4,-,N/A,,Clear,110,2013-05-26 05:15:00
12:35 AM,59.0,57.2,94,29.85,10.0,NE,12.7,-,N/A,,Clear,50,2013-05-26 05:35:00
12:55 AM,59.0,57.2,94,29.84,10.0,East,17.3,-,N/A,,Clear,90,2013-05-26 05:55:00
1:15 AM,59.0,57.2,94,29.85,10.0,East,8.1,-,N/A,,Clear,80,2013-05-26 06:15:00
1:35 AM,59.0,59.0,100,29.84,10.0,East,13.8,20.7,N/A,,Clear,90,2013-05-26 06:35:00
1:55 AM,59.0,59.0,100,29.85,10.0,ESE,4.6,-,N/A,,Mostly Cloudy,120,2013-05-26 06:55:00
2:15 AM,59.0,59.0,100,29.85,7.0,East,9.2,-,N/A,,Overcast,100,2013-05-26 07:15:00
2:35 AM,59.0,59.0,100,29.85,4.0,East,12.7,-,N/A,,Overcast,100,2013-05-26 07:35:00
2:55 AM,59.0,59.0,100,29.85,5.0,ESE,10.4,-,N/A,,Overcast,110,2013-05-26 07:55:00
3:15 AM,59.0,59.0,100,29.85,7.0,ESE,12.7,-,N/A,,Overcast,120,2013-05-26 08:15:00
3:35 AM,59.0,59.0,100,29.86,10.0,SE,9.2,-,N/A,,Scattered Clouds,130,2013-05-26 08:35:00
3:55 AM,59.0,59.0,100,29.87,10.0,West,4.6,-,N/A,,Scattered Clouds,280,2013-05-26 08:55:00
4:15 AM,59.0,57.2,94,29.88,10.0,West,5.8,-,N/A,,Mostly Cloudy,270,2013-05-26 09:15:00
4:35 AM,59.0,57.2,94,29.89,10.0,WNW,8.1,-,N/A,,Scattered Clouds,290,2013-05-26 09:35:00
4:55 AM,59.0,57.2,94,29.92,10.0,WNW,9.2,-,N/A,,Scattered Clouds,300,2013-05-26 09:55:00
5:15 AM,59.0,59.0,100,29.94,1.2,North,11.5,-,N/A,,Overcast,360,2013-05-26 10:15:00
5:35 AM,57.2,57.2,100,29.96,0.2,ENE,18.4,23.0,N/A,Fog,Fog,60,2013-05-26 10:35:00
5:55 AM,51.8,51.8,100,29.98,0.8,NE,18.4,-,N/A,Rain,Light Rain,40,2013-05-26 10:55:00
6:15 AM,51.8,51.8,100,29.99,0.5,ENE,13.8,20.7,N/A,Fog,Fog,60,2013-05-26 11:15:00
6:35 AM,51.8,51.8,100,30.00,0.5,ENE,12.7,18.4,N/A,Fog,Fog,60,2013-05-26 11:35:00
6:55 AM,51.8,51.8,100,30.02,0.2,East,13.8,23.0,N/A,Fog,Fog,80,2013-05-26 11:55:00
7:15 AM,50.0,50.0,100,30.02,2.5,East,16.1,19.6,N/A,,Mostly Cloudy,90,2013-05-26 12:15:00
7:35 AM,50.0,50.0,100,30.02,2.0,East,16.1,19.6,N/A,,Overcast,90,2013-05-26 12:35:00
7:55 AM,50.0,50.0,100,30.02,2.0,ESE,16.1,19.6,N/A,,Overcast,110,2013-05-26 12:55:00
8:15 AM,50.0,50.0,100,30.02,3.0,ESE,13.8,21.9,N/A,,Mostly Cloudy,120,2013-05-26 13:15:00
8:35 AM,50.0,50.0,100,30.02,4.0,ESE,15.0,19.6,N/A,,Partly Cloudy,120,2013-05-26 13:35:00
8:55 AM,50.0,50.0,100,30.02,8.0,ESE,18.4,-,N/A,,Clear,110,2013-05-26 13:55:00
9:15 AM,51.8,51.8,100,30.01,8.0,ESE,17.3,-,N/A,,Clear,120,2013-05-26 14:15:00
9:35 AM,53.6,53.6,100,29.99,10.0,ESE,15.0,19.6,N/A,,Mostly Cloudy,120,2013-05-26 14:35:00
9:55 AM,55.4,53.6,94,29.98,10.0,ESE,16.1,-,N/A,,Scattered Clouds,110,2013-05-26 14:55:00
10:15 AM,57.2,53.6,88,29.97,10.0,East,16.1,-,N/A,,Clear,100,2013-05-26 15:15:00
10:35 AM,59.0,53.6,82,29.96,10.0,East,13.8,-,N/A,,Clear,100,2013-05-26 15:35:00
10:55 AM,62.6,55.4,77,29.96,10.0,East,12.7,-,N/A,,Clear,90,2013-05-26 15:55:00
11:15 AM,64.4,55.4,73,29.96,10.0,East,10.4,17.3,N/A,,Clear,80,2013-05-26 16:15:00
11:35 AM,66.2,57.2,73,29.95,10.0,East,13.8,17.3,N/A,,Clear,100,2013-05-26 16:35:00
11:55 AM,66.2,57.2,73,29.95,10.0,East,11.5,-,N/A,,Clear,90,2013-05-26 16:55:00
12:15 PM,68.0,57.2,68,29.94,10.0,East,15.0,-,N/A,,Clear,90,2013-05-26 17:15:00
12:35 PM,68.0,59.0,73,29.94,10.0,East,12.7,18.4,N/A,,Clear,80,2013-05-26 17:35:00
12:55 PM,66.2,59.0,78,29.94,10.0,ENE,12.7,-,N/A,,Clear,70,2013-05-26 17:55:00
1:15 PM,68.0,59.0,73,29.93,10.0,ENE,13.8,-,N/A,,Clear,60,2013-05-26 18:15:00
1:35 PM,68.0,59.0,73,29.93,10.0,ENE,17.3,-,N/A,,Clear,70,2013-05-26 18:35:00
1:55 PM,68.0,59.0,73,29.92,10.0,East,13.8,-,N/A,,Clear,80,2013-05-26 18:55:00
2:15 PM,64.4,59.0,83,29.92,10.0,East,13.8,-,N/A,,Clear,80,2013-05-26 19:15:00
2:35 PM,64.4,59.0,83,29.93,10.0,East,6.9,-,N/A,,Clear,90,2013-05-26 19:35:00
2:55 PM,62.6,59.0,88,29.93,10.0,ENE,6.9,-,N/A,Thunderstorm,Clear,70,2013-05-26 19:55:00
3:15 PM,60.8,59.0,94,29.93,10.0,NE,9.2,-,N/A,Thunderstorm,Thunderstorm,50,2013-05-26 20:15:00
3:35 PM,60.8,59.0,94,29.92,10.0,East,5.8,-,N/A,,Clear,100,2013-05-26 20:35:00
3:55 PM,60.8,57.2,88,29.90,10.0,ENE,6.9,-,N/A,,Clear,60,2013-05-26 20:55:00
4:15 PM,62.6,57.2,82,29.90,10.0,ESE,16.1,19.6,N/A,,Clear,110,2013-05-26 21:15:00
4:35 PM,62.6,59.0,88,29.91,10.0,ESE,11.5,-,N/A,,Clear,110,2013-05-26 21:35:00
4:55 PM,62.6,59.0,88,29.92,10.0,NE,9.2,-,N/A,,Clear,40,2013-05-26 21:55:00
5:15 PM,62.6,59.0,88,29.90,10.0,East,12.7,-,N/A,,Clear,80,2013-05-26 22:15:00
5:35 PM,64.4,59.0,83,29.90,10.0,ESE,13.8,-,N/A,,Clear,110,2013-05-26 22:35:00
5:55 PM,62.6,59.0,88,29.90,10.0,East,10.4,-,N/A,,Clear,90,2013-05-26 22:55:00
6:15 PM,66.2,59.0,78,29.89,10.0,East,8.1,-,N/A,,Clear,80,2013-05-26 23:15:00
6:35 PM,62.6,59.0,88,29.89,10.0,NNE,15.0,-,N/A,,Partly Cloudy,30,2013-05-26 23:35:00
6:55 PM,59.0,59.0,100,29.90,8.0,NNE,9.2,-,N/A,,Mostly Cloudy,30,2013-05-26 23:55:00
7:15 PM,59.0,59.0,100,29.91,8.0,ENE,15.0,-,N/A,,Scattered Clouds,60,2013-05-27 00:15:00
7:35 PM,59.0,57.2,94,29.90,7.0,East,15.0,20.7,N/A,,Mostly Cloudy,90,2013-05-27 00:35:00
7:55 PM,59.0,57.2,94,29.91,8.0,East,13.8,20.7,N/A,,Mostly Cloudy,80,2013-05-27 00:55:00
8:15 PM,59.0,57.2,94,29.90,7.0,East,17.3,-,N/A,,Mostly Cloudy,90,2013-05-27 01:15:00
8:35 PM,59.0,57.2,94,29.90,7.0,East,15.0,-,N/A,,Overcast,100,2013-05-27 01:35:00
8:55 PM,59.0,57.2,94,29.90,5.0,ESE,15.0,-,N/A,,Overcast,110,2013-05-27 01:55:00
9:15 PM,57.2,57.2,100,29.90,6.0,East,13.8,20.7,N/A,,Overcast,100,2013-05-27 02:15:00
9:35 PM,57.2,57.2,100,29.89,7.0,East,13.8,20.7,N/A,,Overcast,100,2013-05-27 02:35:00
9:55 PM,57.2,57.2,100,29.90,9.0,East,13.8,19.6,N/A,,Mostly Cloudy,100,2013-05-27 02:55:00
10:15 PM,57.2,57.2,100,29.89,10.0,East,13.8,-,N/A,,Partly Cloudy,90,2013-05-27 03:15:00
10:35 PM,59.0,55.4,88,29.90,10.0,East,9.2,-,N/A,,Clear,80,2013-05-27 03:35:00
10:55 PM,59.0,55.4,88,29.89,10.0,ENE,10.4,-,N/A,,Clear,70,2013-05-27 03:55:00
11:15 PM,57.2,57.2,100,29.89,4.0,East,11.5,-,N/A,,Mostly Cloudy,80,2013-05-27 04:15:00
11:35 PM,57.2,57.2,100,29.88,9.0,ESE,9.2,-,N/A,Thunderstorm,Partly Cloudy,120,2013-05-27 04:35:00
11:55 PM,57.2,57.2,100,29.89,5.0,East,6.9,-,N/A,,Scattered Clouds,90,2013-05-27 04:55:00